Flag for Israel Weather past 2 weeks in Rishon LeZion, Israel

Now
79 °F

Clear.


Feels Like: 79 °F
Forecast: 67 / 88 °F
Wind: 1 mph from North

Location: Ben Gurion International Airport


UV Index: 7 (High)

Visibility: 10 mi


Pressure: 29.74 "Hg

Humidity: 39%

Dew point: 52 °F

Location of Rishon LeZionLocation

Historic Weather in Rishon LeZion

°F

Rishon LeZion temperature yesterday

Maximum temperature yesterday: 82 °F (at 3:20 PM)
Minimum temperature yesterday: 57 °F (at 5:50 AM)
Average temperature yesterday: 70 °F

Past Weeks' High & Low Weather Summary

 TemperatureHumidityPressure
High97 °F (Apr 24, 12:50 PM)88% (Apr 13, 3:20 AM)30.09 "Hg (Apr 13, 3:20 AM)
Low52 °F (Apr 11, 6:20 AM)20% (Apr 18, 5:20 PM)29.71 "Hg (Apr 24, 4:20 PM)
Average70 °F59%29.94 "Hg
* Reported Apr 9 10:20 PM — Apr 24 10:20 PM, Rishon LeZion, Weather by CustomWeather, © 2014

Note: Actual official high and low records may vary slightly from our data, if they occured in-between our weather recording intervals... More about our weather records

Advertising

Historic Weather Conditions — Data for Previous 24 hours

 ConditionsComfort  
Time TempWeatherWind HumidityBarometerVisibility
10:20 PM
Apr 24
79 °FClear.5 mph42%29.74 "Hg10 mi
9:50 PM79 °FClear.5 mph42%29.71 "Hg10 mi
9:20 PM81 °FClear.5 mph39%29.71 "Hg10 mi
8:50 PM82 °FClear.5 mph35%29.71 "Hg10 mi
8:20 PM82 °FClear.9 mph37%29.71 "Hg10 mi
7:50 PM84 °FSunny.7 mph33%29.71 "Hg10 mi
7:20 PM84 °FSunny.7 mph33%29.71 "Hg10 mi
6:50 PM86 °FSunny.6 mph31%29.71 "Hg10 mi
6:20 PM88 °FSunny.8 mph31%29.71 "Hg10 mi
5:50 PM91 °FSunny.7 mph28%29.71 "Hg10 mi
5:20 PM93 °FPassing clouds.7 mph26%29.71 "HgN/A
4:50 PM91 °FSunny.9 mph28%29.71 "Hg10 mi
4:20 PM91 °FSunny.9 mph32%29.71 "Hg10 mi
3:50 PM90 °FPassing clouds.8 mph36%29.74 "HgN/A
3:20 PM86 °FSunny.12 mph43%29.74 "Hg10 mi
2:50 PM82 °FSunny.14 mph51%29.77 "Hg10 mi
2:20 PM84 °FSunny.16 mph48%29.77 "Hg10 mi
1:50 PM93 °FSunny.15 mph36%29.77 "Hg10 mi
1:20 PM97 °FSunny.3 mph32%29.77 "Hg10 mi
12:50 PM97 °FSunny.3 mph20%29.80 "Hg10 mi
12:20 PM95 °FSunny.2 mph25%29.80 "Hg10 mi
11:50 AM90 °FSunny.3 mph33%29.83 "Hg10 mi
11:20 AM84 °FSunny.3 mph37%29.83 "Hg10 mi
10:20 AM79 °FSunny.1 mph48%29.86 "Hg10 mi
9:50 AM75 °FSunny.1 mph54%29.86 "Hg10 mi
9:20 AM72 °FSunny.2 mph57%29.86 "Hg10 mi
8:50 AM70 °FSunny.1 mph60%29.86 "Hg10 mi
8:20 AM68 °FSunny.2 mph64%29.86 "Hg10 mi
7:50 AM64 °FSunny.2 mph64%29.86 "Hg10 mi
7:20 AM63 °FSunny.2 mph68%29.86 "Hg10 mi
6:50 AM61 °FClear.No wind72%29.86 "Hg10 mi
6:20 AM61 °FClear.1 mph68%29.86 "Hg10 mi
5:50 AM61 °FClear.3 mph77%29.86 "Hg10 mi
5:20 AM59 °FClear.1 mph77%29.86 "Hg10 mi
4:50 AM61 °FClear.1 mph77%29.86 "Hg10 mi
4:20 AM59 °FClear.1 mph82%29.86 "Hg10 mi
3:50 AM63 °FClear.2 mph73%29.86 "Hg10 mi
3:20 AM63 °FClear.2 mph73%29.86 "Hg10 mi
2:50 AM63 °FClear.3 mph77%29.89 "Hg10 mi
2:20 AM63 °FClear.3 mph77%29.89 "Hg10 mi
1:50 AM63 °FClear.1 mph77%29.89 "Hg10 mi
1:20 AM63 °FClear.1 mph77%29.89 "Hg10 mi
12:50 AM64 °FClear.2 mph73%29.92 "Hg10 mi
12:20 AM66 °FClear.3 mph73%29.92 "Hg10 mi
11:50 PM
Apr 23
66 °FClear.2 mph73%29.92 "Hg10 mi
11:20 PM66 °FClear.2 mph73%29.92 "Hg10 mi
Weather by CustomWeather, © 2014

See weather overview